Station MCGA1 - 8736897 - Coast Guard Sector Mobile, AL Image indicating link to RSS feed of recent meteorological observations for station MCGA1


Conditions at MCGA1 as of
(2:30 pm CDT)
1930 GMT on 04/23/2024:
     

Click on the graph icon in the table below to see a time series plot of the last five days of that observation.

5-day plot - Wind Direction Wind Direction (WDIR): S ( 180 deg true )
5-day plot - Wind Speed Wind Speed (WSPD): 8.0 kts
5-day plot - Wind Gust Wind Gust (GST): 13.0 kts
5-day plot - Atmospheric Pressure Atmospheric Pressure (PRES):30.17 in
5-day plot - Air Temperature Air Temperature (ATMP): 70.2 °F
5-day plot - Water Temperature Water Temperature (WTMP): 69.6 °F
5-day plot - Wind Speed at 10 Meters Wind Speed at 10 meters (WSPD10M): 9.7 kts
5-day plot - Wind Speed at 20 Meters Wind Speed at 20 meters (WSPD20M): 9.7 kts
5-day plot -  Wind Speed, Wind Gust and Atmospheric Pressure Combined plot of Wind Speed, Gust, and Air Pressure
NOS Water Level Observation Network Water Level
Previous observations
TIME
(CDT)
5-day plot - Wind Direction
WDIR
 
5-day plot - Wind Speed
WSPD
kts
5-day plot - Wind Gust
GST
kts
5-day plot - Wave Height
WVHT
ft
5-day plot - Dominant Wave Period
DPD
sec
5-day plot - Average Wave Period
APD
sec
5-day plot - Mean Wave Direction
MWD
 
5-day plot - Atmospheric Pressure
PRES
in
5-day plot - Pressure Tendency
PTDY
in
5-day plot - Air Temperature
ATMP
°F
5-day plot - Water Temperature
WTMP
°F
5-day plot - Dew Point
DEWP
°F
5-day plot - Salinity
SAL
psu
5-day plot - Visibility
VIS
nmi
5-day plot - Tide (above MLLW)
TIDE
ft
2024-04-23 02:24 pm S 12.0 15.0----30.17- 69.8 69.6----
2024-04-23 02:18 pm S 9.9 15.0----30.17- 70.2 69.6----
2024-04-23 02:12 pm S 9.9 14.0----30.18- 70.0 69.8----
2024-04-23 02:06 pm S 11.1 13.0----30.18- 70.0 69.8----
2024-04-23 02:00 pm S 8.9 13.0----30.18-0.03 70.3 69.8----
2024-04-23 01:54 pm S 12.0 15.9----30.18- 70.0 70.0----
2024-04-23 01:48 pm S 8.0 14.0----30.19- 70.3 70.0----
2024-04-23 01:42 pm S 9.9 14.0----30.19- 70.3 70.0----
2024-04-23 01:36 pm S 8.9 13.0----30.19- 70.0 70.0----
2024-04-23 01:30 pm S 8.0 12.0----30.19- 70.3 70.2----
2024-04-23 01:24 pm S 8.9 14.0----30.19- 70.3 70.2----
2024-04-23 01:18 pm S 8.0 15.0----30.19- 70.0 70.2----
2024-04-23 01:12 pm S 8.9 15.0----30.19- 69.8 70.2----
2024-04-23 01:06 pm S 8.0 12.0----30.19- 70.0 70.2----
2024-04-23 01:00 pm S 8.9 11.1----30.19-0.02 70.0 70.3----
2024-04-23 12:54 pm S 8.9 13.0----30.19- 69.8 70.3----
2024-04-23 12:48 pmSSW 7.0 12.0----30.20- 70.2 70.3----
2024-04-23 12:42 pmSSW 7.0 11.1----30.19- 70.3 70.3----
2024-04-23 12:36 pm S 8.9 13.0----30.20- 69.3 70.3----
2024-04-23 12:30 pmSSW 7.0 12.0----30.20- 69.6 70.3----
2024-04-23 12:24 pm S 9.9 13.0----30.20- 69.1 70.3----
2024-04-23 12:18 pm S 8.9 12.0----30.20- 69.1 70.3----
2024-04-23 12:12 pm S 8.0 12.0----30.20- 68.9 70.3----
2024-04-23 12:06 pm S 8.9 12.0----30.20- 68.7 70.3----
2024-04-23 12:00 pm S 8.0 11.1----30.21+0.00 68.7 70.3----
2024-04-23 11:54 am S 7.0 11.1----30.21- 68.9 70.3----
2024-04-23 11:48 am S 8.0 11.1----30.21- 68.7 70.3----
2024-04-23 11:42 amSSE 5.1 11.1----30.21- 68.9 70.3----
2024-04-23 11:36 am S 6.0 8.9----30.21- 68.2 70.3----
2024-04-23 11:30 amSSE 2.9 7.0----30.21- 68.2 70.3----
2024-04-23 11:24 am S 4.1 8.0----30.21- 68.7 70.3----
2024-04-23 11:18 am S 4.1 6.0----30.22- 68.5 70.3----
2024-04-23 11:12 am S 4.1 5.1----30.22- 68.0 70.2----
2024-04-23 11:06 amSSE 1.9 6.0----30.22- 68.2 70.2----
2024-04-23 11:00 amSSE 4.1 7.0----30.22+0.01 67.6 70.2----
2024-04-23 10:54 am SE 5.1 8.0----30.22- 67.6 70.2----
2024-04-23 10:48 am SE 7.0 8.0----30.22- 67.1 70.2----
2024-04-23 10:42 am SE 6.0 8.0----30.21- 67.5 70.2----
2024-04-23 10:36 am SE 7.0 11.1----30.21- 67.3 70.2----
2024-04-23 10:30 am SE 7.0 9.9----30.21- 66.9 70.2----
2024-04-23 10:24 am SE 8.0 11.1----30.21- 66.7 70.2----
2024-04-23 10:18 amESE 8.9 12.0----30.21- 66.4 70.2----
2024-04-23 10:12 amESE 9.9 12.0----30.21- 66.0 70.0----
2024-04-23 10:06 amESE 8.9 12.0----30.22- 65.7 70.0----
2024-04-23 10:00 amESE 9.9 11.1----30.22+0.02 65.5 69.8----
2024-04-23 09:54 amESE 9.9 12.0----30.22- 65.3 69.8----
2024-04-23 09:48 amESE 11.1 12.0----30.22- 65.1 69.8----
2024-04-23 09:42 amESE 12.0 13.0----30.21- 64.8 69.8----
2024-04-23 09:36 amESE 12.0 13.0----30.21- 64.8 69.6----
2024-04-23 09:30 amESE 11.1 12.0----30.21- 64.4 69.6----
2024-04-23 09:24 amESE 9.9 12.0----30.21- 64.2 69.6----
2024-04-23 09:18 am E 9.9 11.1----30.21- 64.0 69.8----
2024-04-23 09:12 am E 9.9 12.0----30.21- 63.9 69.8----
2024-04-23 09:06 am E 7.0 8.9----30.21- 63.7 69.8----
2024-04-23 09:00 am NE 4.1 8.0----30.21+0.03 62.8 69.8----
2024-04-23 08:54 amENE 5.1 8.0----30.21- 62.6 69.8----
2024-04-23 08:48 amENE 5.1 6.0----30.21- 62.4 69.8----
2024-04-23 08:42 amENE 2.9 5.1----30.21- 61.9 69.8----
2024-04-23 08:36 am NE 2.9 4.1----30.21- 61.0 70.0----
2024-04-23 08:30 am NE 2.9 4.1----30.21- 60.6 70.0----
2024-04-23 08:24 am NE 2.9 5.1----30.21- 60.3 70.0----
2024-04-23 08:18 amNNE 4.1 6.0----30.21- 59.5 70.0----
2024-04-23 08:12 amENE 5.1 6.0----30.20- 59.2 69.8----
2024-04-23 08:06 am NE 1.9 4.1----30.20- 59.0 69.8----
2024-04-23 08:00 am N 2.9 5.1----30.20+0.04 58.5 69.8----
2024-04-23 07:54 amNNE 5.1 6.0----30.20- 57.6 69.8----
2024-04-23 07:48 am NE 5.1 6.0----30.20- 57.4 69.8----
2024-04-23 07:42 amNNE 5.1 5.1----30.20- 56.5 69.8----
2024-04-23 07:36 amNNE 2.9 5.1----30.20- 55.2 69.8----
2024-04-23 07:30 amNNE 4.1 5.1----30.20- 54.5 69.8----
2024-04-23 07:24 am N 2.9 5.1----30.20- 54.5 69.8----
2024-04-23 07:18 amNNE 2.9 4.1----30.19- 53.8 69.8----
2024-04-23 07:12 am N 2.9 4.1----30.19- 53.4 69.6----
2024-04-23 07:06 am N 1.9 2.9----30.19- 53.1 69.6----
2024-04-23 07:00 amNNW 1.9 4.1----30.19+0.04 52.3 69.6----
2024-04-23 06:54 amNNW 1.0 2.9----30.19- 52.0 69.6----
2024-04-23 06:48 am NW 1.9 2.9----30.19- 51.1 69.6----
2024-04-23 06:42 am NW 1.0 2.9----30.19- 50.7 69.6----
2024-04-23 06:36 am NW 1.0 1.9----30.19- 50.5 69.6----
2024-04-23 06:30 am- 0.0 4.1----30.18- 50.4 69.6----
2024-04-23 06:24 amNNW 2.9 2.9----30.18- 49.8 69.6----
2024-04-23 06:18 am NW 1.9 6.0----30.18- 50.2 69.6----
2024-04-23 06:12 am N 4.1 4.1----30.18- 50.0 69.6----
2024-04-23 06:06 amWNW 1.9 4.1----30.18- 49.5 69.6----
2024-04-23 06:00 amWNW 1.9 4.1----30.18+0.03 49.5 69.6----
2024-04-23 05:54 am NW 2.9 2.9----30.18- 49.6 69.6----
2024-04-23 05:48 amWNW 1.9 2.9----30.17- 49.3 69.6----
2024-04-23 05:42 amWNW 1.0 2.9----30.17- 49.6 69.6----
2024-04-23 05:36 amWNW 1.9 2.9----30.17- 49.6 69.6----
2024-04-23 05:30 amWNW 1.9 2.9----30.16- 49.8 69.6----
2024-04-23 05:24 amNNW 1.9 4.1----30.16- 50.4 69.6----
2024-04-23 05:18 amNNW 1.9 2.9----30.16- 50.4 69.6----
2024-04-23 05:12 am NW 1.9 4.1----30.16- 50.5 69.6----
2024-04-23 05:06 amNNW 2.9 4.1----30.16- 50.5 69.6----
2024-04-23 05:00 amWNW 1.0 2.9----30.16+0.00 50.4 69.6----
2024-04-23 04:54 amWNW 1.0 2.9----30.16- 50.5 69.6----
2024-04-23 04:48 am NW 1.9 4.1----30.16- 50.7 69.8----
2024-04-23 04:42 amNNW 1.9 4.1----30.15- 51.3 69.8----
2024-04-23 04:36 amNNW 1.9 2.9----30.15- 51.4 69.8----
2024-04-23 04:30 am NW 1.0 2.9----30.15- 51.1 69.8----
2024-04-23 04:24 am- 0.0 2.9----30.15- 50.9 69.8----
2024-04-23 04:18 amWNW 1.9 1.9----30.15- 51.3 69.8----
2024-04-23 04:12 am NW 1.0 1.9----30.15- 52.0 69.8----
2024-04-23 04:06 am NW 1.9 2.9----30.15- 51.6 69.8----
2024-04-23 04:00 amNNW 1.9 2.9----30.15-0.02 52.0 69.8----
2024-04-23 03:54 amNNW 1.9 2.9----30.15- 51.8 69.8----
2024-04-23 03:48 amNNW 1.9 4.1----30.14- 51.8 69.8----
2024-04-23 03:42 am N 1.9 2.9----30.14- 52.2 69.8----
2024-04-23 03:36 amNNW 2.9 4.1----30.14- 52.2 69.8----
2024-04-23 03:30 amNNW 1.9 4.1----30.14- 52.2 69.8----
2024-04-23 03:24 am NW 1.9 4.1----30.14- 52.5 69.8----
2024-04-23 03:18 amNNW 2.9 2.9----30.14- 52.7 69.8----
2024-04-23 03:12 am W 1.0 4.1----30.15- 52.3 69.8----
2024-04-23 03:06 amNNW 2.9 4.1----30.15- 52.7 69.8----
2024-04-23 03:00 am NW 1.9 2.9----30.15-0.03 52.9 69.8----
2024-04-23 02:54 amNNW 1.0 1.9----30.15- 53.2 69.8----
2024-04-23 02:48 amNNW 1.0 2.9----30.15- 52.9 69.8----
2024-04-23 02:42 amNNW 1.0 4.1----30.15- 53.6 69.8----
2024-04-23 02:36 am N 2.9 4.1----30.15- 53.6 69.8----
2024-04-23 02:30 amNNW 1.9 2.9----30.16- 53.4 69.8----
2024-04-23 02:24 am W 1.9 1.9----30.16- 53.4 69.8----
2024-04-23 02:18 am NW 1.0 1.9----30.16- 53.8 69.8----
2024-04-23 02:12 amWNW 1.9 1.9----30.16- 53.6 69.8----
2024-04-23 02:06 am N 1.9 2.9----30.16- 54.5 69.8----
2024-04-23 02:00 amNNW 1.9 2.9----30.16+0.00 54.3 69.8----
2024-04-23 01:54 amWNW 1.0 1.9----30.16- 54.5 69.8----
2024-04-23 01:48 am- 0.0 2.9----30.16- 54.5 69.8----
2024-04-23 01:42 amNNW 1.9 2.9----30.16- 54.7 69.8----
2024-04-23 01:36 am- 0.0 2.9----30.16- 54.9 69.8----
2024-04-23 01:30 amNNW 1.9 2.9----30.16- 55.0 69.8----
2024-04-23 01:24 amNNW 1.0 2.9----30.17- 55.2 69.8----
2024-04-23 01:18 amWNW 1.0 1.9----30.17- 55.4 69.8----
2024-04-23 01:12 am- 0.0 1.0----30.17- 55.6 69.8----
2024-04-23 01:06 am NW 1.0 1.9----30.17- 55.8 69.8----
2024-04-23 01:00 am- 0.0 1.0----30.17+0.00 55.6 69.8----
2024-04-23 12:54 am- 0.0 2.9----30.17- 55.2 69.8----
2024-04-23 12:48 amWNW 1.0 1.9----30.17- 55.4 69.8----
2024-04-23 12:42 am- 0.0 1.9----30.17- 55.9 69.8----
2024-04-23 12:36 amNNW 1.0 1.9----30.17- 56.3 69.8----
2024-04-23 12:30 am- 0.0 1.0----30.17- 55.8 69.8----
2024-04-23 12:24 am- 0.0 1.9----30.17- 55.9 69.8----
2024-04-23 12:18 amWNW 1.0 1.9----30.18- 56.1 69.8----
2024-04-23 12:12 am W 1.9 2.9----30.18- 56.1 69.8----
2024-04-23 12:06 am W 1.9 4.1----30.18- 56.1 69.8----
2024-04-23 12:00 amWNW 4.1 4.1----30.18+0.02 56.1 69.8----
2024-04-22 11:54 pmWNW 2.9 4.1----30.18- 57.0 69.8----
2024-04-22 11:48 pmWNW 2.9 2.9----30.18- 57.4 69.8----
2024-04-22 11:42 pm W 1.9 2.9----30.18- 57.2 69.8----
2024-04-22 11:36 pmWSW 1.9 4.1----30.17- 57.6 69.8----
2024-04-22 11:30 pm NW 2.9 4.1----30.17- 58.5 69.8----
2024-04-22 11:24 pmNNW 1.9 2.9----30.17- 59.2 69.8----
2024-04-22 11:18 pmNNW 1.9 2.9----30.17- 59.0 69.8----
2024-04-22 11:12 pmNNW 1.9 2.9----30.17- 58.8 69.8----
2024-04-22 11:06 pm NW 2.9 2.9----30.17- 59.0 69.8----
2024-04-22 11:00 pm NW 2.9 2.9----30.17+0.03 58.8 69.8----
2024-04-22 10:54 pmWNW 1.9 2.9----30.16- 59.5 69.8----
2024-04-22 10:48 pm NW 1.9 1.9----30.16- 59.5 69.8----
2024-04-22 10:42 pmWSW 1.9 2.9----30.16- 59.0 69.8----
2024-04-22 10:36 pmWNW 1.0 1.9----30.16- 59.0 69.8----
2024-04-22 10:30 pmWNW 1.9 2.9----30.17- 59.9 69.8----
2024-04-22 10:24 pm N 1.9 2.9----30.17- 61.7 69.8----
2024-04-22 10:18 pm N 2.9 4.1----30.17- 62.4 69.8----
2024-04-22 10:12 pm N 2.9 4.1----30.17- 63.0 69.8----
2024-04-22 10:06 pm N 2.9 2.9----30.17- 63.3 69.8----
2024-04-22 10:00 pmNNE 1.9 4.1----30.17+0.04 63.5 69.8----
2024-04-22 09:54 pmNNE 1.9 4.1----30.17- 63.7 69.8----
2024-04-22 09:48 pmNNE 2.9 4.1----30.16- 63.7 69.8----
2024-04-22 09:42 pmNNE 2.9 4.1----30.16- 63.9 69.8----
2024-04-22 09:36 pmNNE 2.9 4.1----30.16- 63.9 69.8----
2024-04-22 09:30 pmNNE 4.1 4.1----30.16- 64.4 69.8----
2024-04-22 09:24 pm N 2.9 4.1----30.16- 64.0 69.8----
2024-04-22 09:18 pm N 2.9 4.1----30.16- 64.0 69.8----
2024-04-22 09:12 pm N 1.9 4.1----30.16- 64.2 69.8----
2024-04-22 09:06 pm N 1.9 2.9----30.16- 64.4 69.8----
2024-04-22 09:00 pm N 2.9 4.1----30.16+0.04 64.6 69.8----
2024-04-22 08:54 pm N 1.9 2.9----30.16- 64.9 69.8----
2024-04-22 08:48 pm N 1.9 1.9----30.15- 64.8 69.8----
2024-04-22 08:42 pm N 1.9 1.9----30.15- 65.3 69.8----
2024-04-22 08:36 pmNNE 1.0 2.9----30.15- 65.5 69.8----
2024-04-22 08:30 pm N 1.9 2.9----30.14- 65.5 69.8----
2024-04-22 08:24 pm N 1.9 2.9----30.14- 65.7 69.8----
2024-04-22 08:18 pm N 1.0 4.1----30.14-- 69.8----
2024-04-22 08:12 pm N 1.9 4.1----30.14-- 69.8----
2024-04-22 08:06 pm N 2.9 4.1----30.14-- 69.8----
2024-04-22 08:00 pm N 2.9 4.1----30.14+0.02 66.0 69.8----
2024-04-22 07:54 pm N 2.9 4.1----30.14- 66.2 69.8----
2024-04-22 07:48 pm N 1.9 5.1----30.14-- 69.8----
2024-04-22 07:42 pm N 2.9 5.1----30.14-- 69.8----
2024-04-22 07:36 pm N 2.9 5.1----30.14-- 69.8----
2024-04-22 07:30 pm N 4.1 6.0----30.14- 67.1 69.8----
2024-04-22 07:24 pm N 4.1 6.0----30.13- 67.3 69.8----
2024-04-22 07:18 pm--------- 67.6 69.8----
2024-04-22 07:12 pm--------- 67.8 69.8----
2024-04-22 07:06 pm--------- 68.0 69.8----
2024-04-22 07:00 pm N 4.1 7.0----30.13+0.00 68.2 69.8----
2024-04-22 06:54 pm N 4.1 9.9----30.13- 68.5 69.8----
2024-04-22 06:48 pm N 5.1 11.1----30.13- 68.5 69.8----
2024-04-22 06:42 pm N 6.0 8.9----30.13- 68.9 69.8----
2024-04-22 06:36 pmNNE 6.0 11.1----30.13- 68.7 69.8----
2024-04-22 06:30 pmNNE 8.0 9.9----30.13- 68.5 69.8----
2024-04-22 06:24 pmNNE 5.1 7.0----30.12- 69.1 69.8----
2024-04-22 06:18 pm NE 5.1 8.9----30.12- 68.7 69.8----
2024-04-22 06:12 pmNNE 8.0 12.0----30.12- 68.7 69.8----
2024-04-22 06:06 pmNNE 6.0 9.9----30.12- 69.3 69.8----
2024-04-22 06:00 pmNNE 8.0 12.0----30.12-0.03 69.1 69.8----
2024-04-22 05:54 pmNNE 7.0 9.9----30.12- 69.3 69.8----
2024-04-22 05:48 pm NE 6.0 8.9----30.12- 68.9 69.8----
2024-04-22 05:42 pmNNE 7.0 14.0----30.12- 69.1 69.8----
2024-04-22 05:36 pmNNE 8.0 11.1----30.12- 68.9 69.8----
2024-04-22 05:30 pmNNE 8.9 12.0----30.12- 68.9 69.8----
2024-04-22 05:24 pmNNE 7.0 9.9----30.12- 69.3 69.8----
2024-04-22 05:18 pmNNE 8.9 14.0----30.12- 68.9 69.8----
2024-04-22 05:12 pmNNE 9.9 12.0----30.12- 68.7 69.8----
2024-04-22 05:06 pmNNE 5.1 12.0----30.12- 69.3 69.8----
2024-04-22 05:00 pm N 8.9 12.0----30.12-0.05 69.3 69.8----
2024-04-22 04:54 pmNNW 7.0 9.9----30.12- 68.9 69.8----
2024-04-22 04:48 pm N 7.0 13.0----30.12- 68.7 69.8----
2024-04-22 04:42 pmNNE 8.9 13.0----30.12- 68.2 69.8----
2024-04-22 04:36 pm N 8.0 14.0----30.12- 69.1 69.8----
2024-04-22 04:30 pm N 7.0 12.0----30.12- 68.5 69.8----
2024-04-22 04:24 pm N 7.0 13.0----30.12- 68.5 69.6----
2024-04-22 04:18 pm N 6.0 11.1----30.13- 68.4 69.6----
2024-04-22 04:12 pm N 9.9 12.0----30.13- 68.4 69.6----
2024-04-22 04:06 pm NE 7.0 14.0----30.13- 67.6 69.6----
2024-04-22 04:00 pm N 8.0 14.0----30.13-0.06 68.2 69.6----
2024-04-22 03:54 pm N 8.0 13.0----30.13- 68.0 69.6----
2024-04-22 03:48 pm NE 8.9 12.0----30.13- 66.9 69.6----
2024-04-22 03:42 pm NE 7.0 13.0----30.13- 67.1 69.6----
2024-04-22 03:36 pmNNE 9.9 13.0----30.13- 66.9 69.6----
2024-04-22 03:30 pm N 11.1 15.0----30.13- 67.6 69.6----
2024-04-22 03:24 pm N 9.9 15.9----30.14- 67.8 69.6----
2024-04-22 03:18 pm NE 8.0 15.0----30.14- 66.6 69.6----
2024-04-22 03:12 pm N 9.9 14.0----30.14- 66.9 69.6----
2024-04-22 03:06 pmNNE 8.0 14.0----30.14- 66.4 69.6----
2024-04-22 03:00 pm NE 11.1 14.0----30.15-0.06 66.0 69.6----
2024-04-22 02:54 pmNNE 11.1 18.1----30.15- 66.0 69.6----